Date,TemperatureHighF,TemperatureAvgF,TemperatureLowF,DewpointHighF,DewpointAvgF,DewpointLowF,HumidityHigh,HumidityAvg,HumidityLow,PressureMaxIn,PressureMinIn,WindSpeedMaxMPH,WindSpeedAvgMPH,GustSpeedMaxMPH,PrecipitationSumIn
2014-1-1,52,33,20,32,23,19,96,71,31,30.50,30.30,11,2,11,0.00
2014-1-2,52,43,31,32,23,19,71,46,30,30.40,29.95,19,7,25,0.00
2014-1-3,51,38,20,37,26,17,97,68,33,30.23,29.79,23,7,35,0.00
2014-1-4,22,18,13,21,17,8,99,93,67,30.44,30.21,8,1,12,0.00
2014-1-5,27,3,-4,-2,-4,-7,88,71,26,30.84,30.58,6,2,7,0.00
2014-1-6,38,25,1,26,13,-2,90,61,34,30.58,30.24,13,4,13,0.00
2014-1-7,41,32,28,28,25,21,87,75,45,30.24,30.17,10,2,14,0.00
2014-1-8,42,39,36,30,28,26,73,65,54,30.17,29.95,11,5,16,0.00
2014-1-9,51,39,33,31,25,16,68,56,34,29.99,29.87,13,5,17,0.00
2014-1-10,46,38,32,28,24,17,71,58,46,30.08,29.84,14,6,17,0.00
2014-1-11,57,44,36,38,29,22,65,55,44,30.06,29.56,25,9,31,0.00
2014-1-12,46,38,35,30,23,19,83,56,37,30.11,29.67,17,7,21,0.00
2014-1-13,46,40,28,31,29,27,98,65,49,30.51,30.00,24,7,24,0.00
2014-1-14,60,35,16,37,28,15,99,80,41,30.62,30.46,11,2,14,0.00
2014-1-15,52,42,32,28,25,21,79,51,31,30.54,30.37,23,5,23,0.00
2014-1-16,62,35,20,30,24,18,91,68,26,30.59,30.43,8,1,9,0.00
2014-1-17,65,39,24,27,22,18,90,54,17,30.47,30.32,10,3,13,0.00
2014-1-18,52,32,19,27,22,18,97,70,28,30.49,30.23,21,3,21,0.00
2014-1-19,55,44,26,23,19,13,76,39,19,30.51,30.17,13,5,16,0.00
2014-1-20,54,33,14,24,18,13,95,60,25,30.60,30.46,12,3,17,0.00
2014-1-21,60,40,30,26,21,18,72,48,23,30.48,30.44,9,3,13,0.00
2014-1-22,33,30,25,30,25,22,94,82,70,30.62,30.39,8,1,8,0.00
2014-1-23,41,25,14,32,22,13,99,89,60,30.62,30.52,7,2,10,0.00
2014-1-24,60,43,32,30,27,25,81,56,29,30.56,30.47,14,4,14,0.00
2014-1-25,54,38,30,30,28,25,85,67,35,30.49,30.29,10,3,12,0.00
2014-1-26,38,27,17,33,20,8,98,75,48,30.57,30.23,14,2,16,0.00
2014-1-27,39,16,-1,14,7,-3,91,70,32,30.53,30.46,8,2,8,0.00
2014-1-28,48,21,-1,25,6,-7,93,61,10,30.51,30.15,14,3,16,0.00
2014-1-29,45,38,21,35,29,20,96,70,58,30.15,29.74,14,4,15,0.00
2014-1-30,21,11,5,20,7,1,95,84,63,30.23,29.99,8,2,11,0.00
2014-1-31,22,9,0,13,5,-2,93,84,56,30.26,29.99,17,2,20,0.00
2014-2-1,39,16,2,14,7,-1,93,71,28,30.33,30.19,10,2,14,0.00
2014-2-2,19,14,6,11,9,4,91,81,66,30.24,30.16,7,2,8,0.00
2014-2-3,14,11,9,11,8,4,89,87,80,30.32,30.19,9,4,13,0.00
2014-2-4,9,-5,-17,-8,-14,-21,80,66,43,30.75,30.64,11,3,15,0.00
2014-2-5,10,-15,-30,-11,-24,-35,80,66,32,30.81,30.64,8,1,9,0.00
2014-2-6,18,-13,-37,-10,-25,-43,80,58,23,30.64,30.11,8,2,10,0.00
2014-2-7,32,3,-20,9,-6,-25,87,69,33,30.12,29.95,8,2,9,0.00
2014-2-8,19,4,-9,4,-2,-12,88,77,48,30.44,30.12,7,2,8,0.00
2014-2-9,30,8,-5,11,0,-8,91,73,33,30.38,30.20,4,1,6,0.00
2014-2-10,39,18,0,28,13,-1,92,81,60,30.26,30.10,14,3,17,0.00
2014-2-11,56,39,25,40,26,13,98,62,25,30.24,30.00,18,5,19,0.00
2014-2-12,57,40,31,35,24,12,71,51,38,30.19,29.79,21,6,24,0.00
2014-2-13,51,41,28,36,29,20,89,63,36,30.17,29.86,26,6,29,0.00
2014-2-14,49,38,27,32,24,13,75,58,33,30.19,29.92,15,5,20,0.00
2014-2-15,53,40,29,35,29,20,88,69,28,30.13,29.79,15,4,21,0.00
2014-2-16,50,42,34,36,26,14,68,53,36,30.14,29.69,24,6,25,0.00
2014-2-17,54,41,33,33,20,12,85,45,25,30.15,29.83,21,9,25,0.00
2014-2-18,51,40,30,27,22,19,78,51,32,30.17,29.73,18,6,22,0.00
2014-2-19,45,36,23,34,16,8,92,45,22,30.13,29.73,21,7,24,0.00
2014-2-20,37,27,16,27,18,10,90,68,48,30.21,29.98,18,4,18,0.00
2014-2-21,42,28,17,24,20,12,94,72,32,30.26,30.04,11,3,14,0.00
2014-2-22,34,19,11,18,11,8,93,75,40,30.31,30.24,11,3,12,0.00
2014-2-23,14,8,2,11,3,-1,88,80,59,30.42,30.31,10,4,15,0.00
2014-2-24,21,8,0,6,2,-3,88,75,45,30.51,30.35,7,2,8,0.00
2014-2-25,38,14,-12,8,0,-15,89,61,18,30.65,30.40,5,2,8,0.00
2014-2-26,45,16,-6,14,3,-9,89,64,27,30.41,30.08,9,2,9,0.00
2014-2-27,41,24,11,30,18,8,94,79,47,30.08,29.81,11,2,13,0.00
2014-2-28,18,6,-6,16,0,-10,90,76,54,30.43,30.14,19,6,19,0.00
2014-3-1,-2,-11,-17,-10,-18,-25,81,71,43,30.45,30.39,11,4,14,0.00
2014-3-2,14,-4,-14,-4,-13,-20,78,63,37,30.39,30.12,10,2,10,0.00
2014-3-3,62,30,-5,37,19,-10,94,67,24,30.12,29.98,15,4,17,0.00
2014-3-4,59,43,32,33,29,24,89,61,27,30.16,30.00,17,4,17,0.00
2014-3-5,57,48,38,37,32,27,73,55,34,30.16,29.92,27,8,27,0.00
2014-3-6,62,42,18,41,30,15,98,67,30,30.17,29.83,21,4,21,0.00
2014-3-7,58,37,18,33,25,15,93,68,34,30.38,30.16,13,3,13,0.00
2014-3-8,59,47,31,29,24,16,87,45,22,30.40,30.15,21,6,24,0.00
2014-3-9,68,56,42,40,34,19,83,45,25,30.15,30.06,30,8,30,0.00
2014-3-10,46,42,37,41,38,35,98,88,72,30.13,29.99,11,2,11,0.00
2014-3-11,58,46,30,42,31,25,89,57,34,30.56,30.47,14,4,16,0.00
2014-3-12,61,43,27,30,25,22,88,55,25,30.50,30.25,14,4,17,0.00
2014-3-13,62,46,30,26,23,18,79,43,20,30.25,30.13,13,4,14,0.00
2014-3-14,53,44,31,36,26,18,79,51,35,30.18,30.06,21,5,21,0.00
2014-3-15,55,44,34,33,25,19,80,49,25,30.49,30.18,17,4,18,0.00
2014-3-16,68,54,43,24,16,1,38,24,10,30.42,29.92,27,7,27,0.00
2014-3-17,45,38,33,34,28,18,98,68,37,30.01,29.70,18,3,18,0.00
2014-3-18,50,38,24,36,24,20,99,60,36,30.30,30.25,14,3,14,0.00
2014-3-19,56,37,22,30,20,16,89,54,22,30.29,30.09,22,5,22,0.00
2014-3-20,48,38,25,32,21,10,87,54,27,30.42,30.02,20,6,23,0.00
2014-3-21,27,21,15,21,15,12,91,79,60,30.55,30.42,17,4,17,0.00
2014-3-22,39,23,10,22,14,6,89,71,42,30.59,30.33,12,3,12,0.00
2014-3-23,40,26,18,25,20,16,93,80,51,30.48,30.26,14,3,14,0.00
2014-3-24,29,21,17,21,16,14,89,81,60,30.61,30.48,17,5,17,0.00
2014-3-25,66,44,28,31,27,22,92,55,22,30.16,29.81,10,3,10,0.00
2014-3-26,58,38,27,39,29,25,96,73,33,29.89,29.75,21,5,21,0.00
2014-3-27,35,30,24,31,28,23,98,91,82,30.12,29.89,13,3,13,0.00
2014-3-28,59,40,18,35,25,17,99,63,21,30.18,30.03,21,4,21,0.00
2014-3-29,51,45,39,40,32,25,95,62,39,30.04,29.94,15,4,16,0.00
2014-3-30,54,37,29,36,29,25,95,76,35,30.23,29.99,21,5,22,0.00
2014-3-31,52,34,27,28,27,24,98,80,36,30.25,30.08,8,2,9,0.00
2014-4-1,39,33,26,32,29,24,95,86,74,30.09,30.04,12,3,13,0.00
2014-4-2,56,39,28,40,30,26,95,74,34,30.16,30.00,12,2,15,0.00
2014-4-3,64,39,20,35,24,14,99,66,16,30.26,30.13,14,2,14,0.00
2014-4-4,61,43,26,32,25,18,87,54,20,30.14,29.98,18,4,18,0.00
2014-4-5,55,43,33,30,26,20,82,54,27,30.16,30.07,14,4,14,0.00
2014-4-6,58,44,30,34,29,23,76,56,35,30.34,30.09,15,4,17,0.00
2014-4-7,70,42,28,36,29,22,89,65,22,30.40,30.34,13,3,15,0.00
2014-4-8,76,58,41,36,32,25,73,41,15,30.36,30.11,24,6,24,0.00
2014-4-9,67,58,43,39,31,18,51,37,16,30.22,30.03,22,7,22,0.00
2014-4-10,67,49,36,28,22,10,70,39,13,30.25,30.17,15,4,16,0.00
2014-4-11,69,54,37,32,26,21,65,35,18,30.20,30.00,16,5,23,0.00
2014-4-12,44,33,24,36,30,22,99,87,64,30.44,30.09,12,2,18,0.00
2014-4-13,51,30,21,26,20,11,96,71,22,30.54,30.44,10,1,11,0.00
2014-4-14,67,42,20,25,14,3,90,42,10,30.52,30.12,14,4,17,0.00
2014-4-15,53,48,36,38,27,15,96,49,23,30.14,29.98,15,4,19,0.00
2014-4-16,59,39,28,36,31,26,99,77,30,30.22,30.14,11,2,11,0.00
2014-4-17,63,46,34,40,33,29,88,62,35,30.20,29.95,14,3,14,0.00
2014-4-18,58,48,42,44,31,12,98,56,18,30.19,29.93,21,6,25,0.00
2014-4-19,75,52,29,26,16,8,62,30,10,30.21,30.04,16,4,18,0.00
2014-4-20,66,52,36,34,21,9,66,33,11,30.43,30.08,18,6,21,0.00
2014-4-21,78,54,29,31,21,10,79,37,10,30.45,30.10,15,3,15,0.00
2014-4-22,78,50,32,47,37,27,99,66,21,30.10,29.75,12,3,17,0.00
2014-4-23,57,45,36,42,30,23,99,59,29,30.08,29.87,23,6,23,0.00
2014-4-24,64,47,38,39,34,31,83,63,35,30.09,30.01,14,5,18,0.00
2014-4-25,66,51,36,43,33,29,96,52,31,30.06,29.89,15,4,21,0.00
2014-4-26,46,39,34,42,37,34,99,93,77,29.95,29.84,11,2,11,0.00
2014-4-27,64,41,27,39,29,19,99,71,19,30.06,29.92,12,3,17,0.00
2014-4-28,60,43,28,32,25,16,92,55,19,30.55,30.06,14,4,21,0.00
2014-4-29,66,44,24,34,24,12,91,53,13,30.73,30.56,14,3,20,0.00
2014-4-30,77,49,24,33,24,12,92,47,10,30.75,30.52,12,3,12,0.00
2014-5-1,86,57,29,41,32,26,93,49,12,30.53,30.25,9,2,10,0.00
2014-5-2,74,52,45,49,42,38,91,71,28,30.25,30.19,16,3,17,0.00
2014-5-3,46,41,38,43,39,37,98,91,76,30.25,30.11,19,5,19,0.00
2014-5-4,70,47,39,48,38,30,99,78,23,30.11,30.02,13,2,13,0.00
2014-5-5,69,48,34,42,36,32,96,68,29,30.10,30.02,12,2,12,0.00
2014-5-6,62,40,31,41,32,29,96,77,33,30.26,30.07,11,4,14,0.00
2014-5-7,58,41,32,35,31,28,94,71,36,30.26,30.13,11,4,12,0.00
2014-5-8,72,43,24,41,28,20,99,66,14,30.17,29.96,10,2,15,0.00
2014-5-9,65,47,31,45,34,27,92,63,30,30.09,29.91,13,3,18,0.00
2014-5-10,55,39,28,43,33,27,98,79,55,30.34,30.08,21,3,21,0.00
2014-5-11,45,36,26,36,32,26,99,88,65,30.59,30.34,9,2,11,0.00
2014-5-12,66,41,22,37,25,13,99,65,13,30.66,30.57,15,2,15,0.00
2014-5-13,74,50,25,37,27,18,95,51,13,30.65,30.54,8,3,12,0.00
2014-5-14,76,57,27,42,34,26,97,50,18,30.60,30.42,11,3,11,0.00
2014-5-15,83,64,34,48,42,30,97,51,15,30.43,30.26,18,5,21,0.00
2014-5-16,55,49,41,47,44,40,99,83,67,30.44,30.29,14,3,17,0.00
2014-5-17,83,56,37,51,43,37,99,70,22,30.31,30.00,10,3,13,0.00
2014-5-18,69,51,37,50,44,36,99,77,35,30.05,29.92,10,3,13,0.00
2014-5-19,75,56,40,47,39,32,96,60,21,30.22,30.02,12,4,17,0.00
2014-5-20,78,54,30,45,36,30,99,60,18,30.27,30.20,12,3,16,0.00
2014-5-21,86,62,33,47,35,20,99,49,10,30.30,30.17,10,3,13,0.00
2014-5-22,91,65,37,50,39,27,96,49,11,30.32,30.21,12,3,13,0.00
2014-5-23,95,66,38,50,38,25,94,49,10,30.30,30.07,12,3,14,0.00
2014-5-24,80,58,42,53,47,39,92,68,35,30.26,30.16,13,3,14,0.00
2014-5-25,87,65,40,55,43,29,99,56,14,30.30,30.10,11,3,12,0.00
2014-5-26,85,66,48,52,43,39,80,48,21,30.28,30.15,16,4,19,0.00
2014-5-27,83,62,39,54,42,35,94,54,18,30.35,30.17,12,3,14,0.00
2014-5-28,78,59,43,58,51,43,99,79,42,30.19,30.04,10,3,17,0.00
2014-5-29,74,59,43,51,31,22,79,39,15,30.35,30.16,17,5,20,0.00
2014-5-30,84,61,32,44,33,18,92,45,10,30.39,30.19,12,3,13,0.00
2014-5-31,76,58,44,54,46,40,97,68,33,30.25,30.16,17,3,17,0.00
2014-6-1,76,54,40,55,46,40,99,80,34,30.30,30.23,9,2,12,0.00
2014-6-2,85,62,38,53,42,34,99,59,16,30.27,30.09,12,3,13,0.00
2014-6-3,83,61,44,53,46,40,98,64,25,30.17,30.05,13,3,20,0.00
2014-6-4,83,60,41,55,41,20,96,59,10,30.24,30.14,10,2,13,0.00
2014-6-5,61,53,45,46,43,40,86,67,53,30.34,30.16,17,5,22,0.00
2014-6-6,74,57,44,42,39,33,90,56,25,30.34,30.27,16,4,19,0.00
2014-6-7,76,59,39,47,35,20,93,50,14,30.34,30.26,11,2,11,0.00
2014-6-8,85,62,41,40,33,21,76,40,10,30.36,30.23,12,3,14,0.00
2014-6-9,84,64,39,47,36,28,87,44,14,30.24,30.08,19,5,19,0.00
2014-6-10,82,61,38,47,36,18,93,49,10,30.25,30.05,16,4,17,0.00
2014-6-11,71,56,40,48,42,38,95,63,36,30.35,30.25,14,4,17,0.00
2014-6-12,73,52,34,56,43,33,97,74,37,30.33,29.95,10,2,10,0.00
2014-6-13,77,60,49,59,44,32,99,62,22,30.09,29.96,15,4,17,0.00
2014-6-14,61,52,40,53,44,37,99,77,46,30.14,30.08,11,2,11,0.00
2014-6-15,79,54,36,51,42,34,99,71,21,30.14,29.95,10,3,13,0.00
2014-6-16,71,56,45,58,48,44,99,81,42,30.05,29.93,10,2,10,0.00
2014-6-17,67,53,40,50,44,36,99,75,36,30.17,30.00,14,3,18,0.00
2014-6-18,52,45,37,47,42,36,97,87,58,30.17,30.12,11,3,13,0.00
2014-6-19,71,57,45,53,47,39,99,74,34,30.22,30.12,11,4,14,0.00
2014-6-20,89,60,44,57,47,40,96,68,19,30.24,30.09,24,4,26,0.00
2014-6-21,84,66,46,49,40,22,97,48,11,30.28,30.19,14,4,18,0.00
2014-6-22,79,61,43,53,47,41,95,65,34,30.38,30.28,21,4,21,0.00
2014-6-23,82,64,45,55,50,44,99,64,28,30.39,30.29,17,4,17,0.00
2014-6-24,86,66,43,58,51,42,99,64,31,30.33,30.17,18,3,18,0.00
2014-6-25,89,70,54,62,49,26,99,58,11,30.22,30.08,11,4,18,0.00
2014-6-26,77,63,55,61,58,53,99,84,52,30.10,29.99,9,2,11,0.00
2014-6-27,80,63,51,60,54,49,99,75,37,30.07,29.99,12,3,14,0.00
2014-6-28,73,62,49,51,46,41,89,57,34,30.18,30.05,17,5,20,0.00
2014-6-29,80,62,43,45,41,36,92,51,22,30.30,30.17,20,6,20,0.00
2014-6-30,83,61,40,50,44,38,95,60,24,30.44,30.29,8,2,8,0.00
2014-7-1,84,65,42,57,49,42,99,63,32,30.49,30.34,14,4,17,0.00
2014-7-2,82,55,44,57,48,43,99,81,33,30.36,30.29,6,1,8,0.00
2014-7-3,104,91,66,55,46,33,64,24,10,30.20,30.10,12,4,12,0.00
2014-7-4,97,73,54,61,53,47,88,56,19,30.25,30.15,14,2,18,0.00
2014-7-5,95,75,56,62,44,28,86,43,12,30.33,30.20,14,4,16,0.00
2014-7-6,99,77,51,54,40,28,80,35,10,30.37,30.23,16,5,18,0.00
2014-7-7,86,69,54,57,51,46,89,56,31,30.46,30.27,14,4,15,0.00
2014-7-8,93,72,48,56,49,45,94,51,21,30.40,30.21,15,5,17,0.00
2014-7-9,97,76,51,56,46,27,86,42,10,30.26,30.08,15,3,15,0.00
2014-7-10,100,80,54,59,42,26,87,35,10,30.17,30.06,21,4,21,0.00
2014-7-11,84,68,59,58,54,45,82,62,38,30.45,30.17,24,4,24,0.00
2014-7-12,96,72,50,60,47,32,99,53,12,30.46,30.39,14,3,16,0.00
2014-7-13,98,75,50,52,44,36,77,39,12,30.50,30.38,14,4,18,0.00
2014-7-14,92,74,53,58,51,45,78,48,25,30.52,30.30,19,5,22,0.00
2014-7-15,79,65,55,65,60,52,99,85,54,30.42,30.32,16,2,16,0.00
2014-7-16,96,70,48,67,54,44,99,67,18,30.34,30.18,7,2,7,0.00
2014-7-17,100,79,53,66,49,26,99,48,10,30.21,30.00,14,4,18,0.00
2014-7-18,88,69,50,56,47,38,94,53,18,30.23,30.11,10,2,16,0.00
2014-7-19,86,71,55,52,47,38,75,46,28,30.17,30.08,14,4,14,0.00
2014-7-20,97,79,60,54,49,36,73,37,13,30.14,30.04,14,6,24,0.00
2014-7-21,92,71,54,63,49,27,99,56,12,30.34,30.10,13,3,14,0.00
2014-7-22,94,70,59,68,55,45,99,62,22,30.43,30.34,10,2,13,0.00
2014-7-23,101,76,55,60,54,41,99,60,16,30.47,30.10,31,4,34,0.00
2014-7-24,83,66,51,62,46,29,99,56,17,30.29,30.14,19,5,23,0.00
2014-7-25,85,69,54,42,38,32,60,35,17,30.29,30.21,18,7,22,0.00
2014-7-26,94,69,44,48,38,26,85,41,10,30.44,30.29,15,4,15,0.00
2014-7-27,99,73,44,50,38,29,90,40,10,30.52,30.37,14,4,16,0.00
2014-7-28,96,75,48,49,43,40,78,38,16,30.49,30.34,16,4,16,0.00
2014-7-29,98,77,57,57,47,31,80,41,11,30.44,30.33,19,4,19,0.00
2014-7-30,99,76,51,56,46,33,83,42,10,30.42,30.31,12,3,15,0.00
2014-7-31,99,75,50,56,43,27,85,42,10,30.40,30.33,11,2,13,0.00
2014-8-1,98,75,47,54,43,31,81,40,10,30.44,30.31,18,4,18,0.00
2014-8-2,97,76,56,60,52,40,88,48,17,30.43,30.30,10,3,15,0.00
2014-8-3,99,74,54,56,48,36,74,47,11,30.40,30.26,17,3,17,0.00
2014-8-4,87,70,52,62,55,48,95,62,37,30.41,30.28,15,4,18,0.00
2014-8-5,95,73,54,66,55,44,99,63,18,30.36,30.22,11,3,11,0.00
2014-8-6,97,68,49,51,44,32,89,52,12,30.29,30.17,10,2,14,0.00
2014-8-7,100,76,52,58,42,27,86,40,10,30.29,30.14,11,3,15,0.00
2014-8-8,93,72,52,54,46,39,79,45,15,30.28,30.17,11,3,16,0.00
2014-8-9,91,70,52,56,48,41,91,51,19,30.45,30.27,14,4,17,0.00
2014-8-10,100,74,47,51,40,29,82,38,10,30.46,30.34,15,3,17,0.00
2014-8-11,85,62,50,50,42,39,74,51,22,30.49,30.31,10,2,11,0.00
2014-8-12,102,77,52,54,45,38,73,38,13,30.35,30.21,14,2,16,0.00
2014-8-13,101,84,69,56,46,32,59,33,10,30.32,30.14,15,4,17,0.00
2014-8-14,93,73,61,61,56,48,94,62,24,30.26,30.18,6,2,8,0.00
2014-8-15,86,67,57,64,57,52,98,73,42,30.34,30.23,8,2,12,0.00
2014-8-16,86,65,49,57,50,46,99,67,26,30.32,30.28,18,4,18,0.00
2014-8-17,91,71,52,60,51,45,91,55,21,30.34,30.28,11,4,17,0.00
2014-8-18,97,73,49,60,47,28,98,51,10,30.34,30.11,12,3,17,0.00
2014-8-19,98,71,47,56,41,27,87,45,10,30.13,29.96,14,3,17,0.00
2014-8-20,89,70,54,58,48,43,91,51,20,30.25,30.03,15,3,15,0.00
2014-8-21,72,59,52,58,54,52,99,85,58,30.37,30.25,13,3,14,0.00
2014-8-22,67,56,49,56,53,49,99,90,64,30.40,30.33,13,4,14,0.00
2014-8-23,51,48,46,50,48,46,99,99,97,30.42,30.36,11,3,12,0.00
2014-8-24,62,50,46,54,48,45,99,94,72,30.41,30.34,4,1,5,0.00
2014-8-25,81,56,42,54,47,42,99,77,31,30.41,30.25,9,2,11,0.00
2014-8-26,88,64,41,57,45,36,99,62,16,30.38,30.28,11,3,13,0.00
2014-8-27,95,68,44,57,48,43,99,60,17,30.36,30.25,11,3,14,0.00
2014-8-28,93,70,47,60,46,28,99,54,10,30.38,30.16,21,4,21,0.00
2014-8-29,88,61,44,57,49,41,99,73,20,30.39,30.14,9,2,11,0.00
2014-8-30,83,69,54,46,43,38,67,41,22,30.09,30.02,15,4,20,0.00
2014-8-31,75,60,46,53,45,39,91,62,30,30.20,30.08,12,3,17,0.00
2014-9-1,79,59,44,52,41,35,93,59,22,30.25,30.18,14,3,17,0.00
2014-9-2,89,63,44,51,42,33,91,55,15,30.20,29.96,17,3,18,0.00
2014-9-3,73,58,46,51,40,28,87,55,21,30.33,29.93,19,4,19,0.00
2014-9-4,80,58,42,48,40,35,93,59,22,30.41,30.33,11,2,11,0.00
2014-9-5,84,57,32,47,37,25,99,57,12,30.53,30.39,10,3,11,0.00
2014-9-6,90,60,34,47,36,24,98,53,10,30.48,30.27,10,2,10,0.00
2014-9-7,92,64,39,49,34,18,93,47,10,30.27,30.08,14,3,21,0.00
2014-9-8,91,59,39,50,37,22,87,57,10,30.29,30.01,17,4,18,0.00
2014-9-9,50,42,37,39,36,34,97,80,61,30.44,30.29,16,4,16,0.00
2014-9-10,46,38,34,41,37,34,99,95,82,30.63,30.37,12,2,12,0.00
2014-9-11,59,40,29,38,34,29,99,83,39,30.71,30.57,10,3,12,0.00
2014-9-12,76,49,28,40,31,25,99,60,17,30.57,30.29,13,4,14,0.00
2014-9-13,65,46,31,42,37,29,97,76,39,30.50,30.32,10,2,11,0.00
2014-9-14,76,49,28,46,36,28,99,71,23,30.39,30.31,11,2,14,0.00
2014-9-15,91,55,32,48,36,22,99,62,10,30.40,30.23,9,2,13,0.00
2014-9-16,82,57,41,62,46,37,91,70,29,30.29,30.17,5,1,6,0.00
2014-9-17,91,63,46,65,52,45,99,74,25,30.20,30.05,5,1,7,0.00
2014-9-18,86,65,48,60,51,46,92,66,30,30.07,29.98,17,3,19,0.00
2014-9-19,82,64,51,49,47,43,83,54,28,30.32,30.07,12,4,18,0.00
2014-9-20,83,62,41,53,45,40,99,61,25,30.48,30.32,12,3,14,0.00
2014-9-21,88,60,38,54,47,38,99,68,26,30.50,30.25,9,2,11,0.00
2014-9-22,89,62,45,56,50,44,99,70,27,30.25,30.16,12,2,14,0.00
2014-9-23,83,57,47,59,51,46,99,85,30,30.29,30.21,8,2,14,0.00
2014-9-24,91,61,50,61,52,47,99,79,22,30.25,30.17,12,2,14,0.00
2014-9-25,97,88,81,50,33,22,32,15,10,30.17,29.98,17,7,24,0.00
2014-9-26,82,66,55,55,46,39,85,52,23,30.32,30.19,11,3,14,0.00
2014-9-27,60,52,49,51,47,39,99,84,46,30.46,30.30,14,4,17,0.00
2014-9-28,50,49,48,49,48,47,99,97,93,30.47,30.32,11,3,13,0.00
2014-9-29,75,58,43,52,48,43,99,72,41,30.32,29.99,17,4,19,0.00
2014-9-30,69,56,42,51,45,37,98,69,41,30.18,30.00,13,4,14,0.00
2014-10-1,65,47,40,46,37,31,99,74,30,30.25,30.17,16,3,16,0.00
2014-10-2,50,39,29,36,34,29,99,83,52,30.63,30.23,18,2,18,0.00
2014-10-3,71,44,24,43,32,24,99,68,21,30.61,30.40,11,2,15,0.00
2014-10-4,83,58,46,50,39,31,87,53,22,30.40,30.26,9,3,11,0.00
2014-10-5,83,54,39,45,41,38,98,72,23,30.34,30.22,8,2,8,0.00
2014-10-6,86,57,42,53,46,39,95,72,24,30.22,30.11,11,2,14,0.00
2014-10-7,89,60,41,52,47,40,97,68,22,30.25,30.14,11,2,13,0.00
2014-10-8,72,51,43,50,45,42,98,82,41,30.30,30.17,8,2,13,0.00
2014-10-9,68,47,39,48,43,39,99,87,47,30.38,30.30,8,1,10,0.00
2014-10-10,74,45,31,51,40,31,99,86,43,30.35,30.27,5,1,5,0.00
2014-10-11,74,57,44,46,42,38,99,66,28,30.12,30.00,11,3,16,0.00
2014-10-12,66,47,37,49,39,32,99,79,31,30.37,30.07,14,2,21,0.00
2014-10-13,63,50,35,38,35,32,90,60,35,30.37,30.16,13,3,15,0.00
2014-10-14,80,57,42,40,37,32,80,51,18,30.16,30.00,16,3,16,0.00
2014-10-15,82,55,40,48,37,30,88,58,15,30.16,29.81,19,4,21,0.00
2014-10-16,60,48,35,36,34,29,80,59,32,30.34,30.17,9,3,15,0.00
2014-10-17,72,48,27,38,30,25,96,59,20,30.34,30.18,11,2,11,0.00
2014-10-18,76,48,36,45,36,30,89,68,27,30.27,30.18,14,2,16,0.00
2014-10-19,82,58,40,39,36,33,86,52,18,30.26,30.16,12,3,13,0.00
2014-10-20,87,47,36,40,35,28,93,70,12,30.17,29.97,8,2,11,0.00
2014-10-21,70,46,40,48,41,36,99,85,40,30.20,29.95,8,2,13,0.00
2014-10-22,68,51,36,39,36,34,99,62,30,30.25,30.13,17,5,20,0.00
2014-10-23,65,58,49,44,38,33,69,49,41,30.18,30.08,21,6,22,0.00
2014-10-24,65,52,42,46,40,35,96,65,35,30.33,30.17,11,3,17,0.00
2014-10-25,60,41,36,47,39,36,99,92,60,30.30,30.05,4,1,5,0.00
2014-10-26,60,51,41,30,28,24,62,42,27,30.11,30.02,21,7,24,0.00
2014-10-27,56,39,27,39,32,26,97,76,40,30.34,30.11,11,2,13,0.00
2014-10-28,62,42,25,33,27,20,99,61,22,30.34,30.23,16,4,16,0.00
2014-10-29,65,53,40,40,38,32,75,57,34,30.34,30.20,17,5,17,0.00
2014-10-31,77,56,35,42,36,32,90,54,19,30.06,30.00,8,2,11,0.00
2014-11-1,64,42,30,43,36,29,99,82,42,30.02,29.89,11,2,14,0.00
2014-11-2,49,38,29,41,33,27,99,82,62,30.25,29.96,11,3,13,0.00
2014-11-3,55,41,28,36,32,26,93,71,45,30.38,30.24,14,4,17,0.00
2014-11-4,55,48,44,40,37,34,74,64,52,30.36,30.22,16,6,17,0.00
2014-11-5,64,50,41,41,38,35,89,64,36,30.52,30.34,13,4,14,0.00
2014-11-6,70,61,53,43,39,35,64,45,30,30.48,30.08,21,8,24,0.00
2014-11-7,67,51,34,40,34,30,89,56,30,30.54,30.11,21,4,30,0.00
2014-11-8,64,52,36,34,27,16,82,42,16,30.49,30.19,16,5,16,0.00
2014-11-9,58,42,12,43,28,9,95,62,34,30.20,29.78,19,5,21,0.00
2014-11-10,22,13,3,16,9,0,92,84,69,30.67,30.20,11,2,11,0.00
2014-11-11,16,5,-1,4,-1,-5,90,77,52,30.79,30.67,8,2,9,0.00
2014-11-12,27,2,-15,7,-6,-19,86,71,31,30.79,30.62,6,2,8,0.00
2014-11-13,28,-1,-18,9,-10,-22,84,71,34,30.63,30.30,7,1,8,0.00
2014-11-14,27,2,-17,6,-5,-20,89,74,35,30.46,30.30,8,1,10,0.00
2014-11-15,35,13,-2,11,3,-5,91,68,28,30.56,30.46,13,2,13,0.00
2014-11-16,39,21,7,18,11,4,93,66,39,30.63,30.48,9,3,13,0.00
2014-11-17,50,22,1,24,10,0,93,64,21,30.61,29.81,11,3,11,0.00
2014-11-18,44,32,16,25,17,13,92,56,30,30.40,29.58,13,3,13,0.00
2014-11-19,59,26,6,29,16,4,95,73,21,30.40,30.17,8,1,8,0.00
2014-11-20,55,37,24,31,25,20,86,63,30,30.17,30.09,11,2,14,0.00
2014-11-21,56,46,38,31,29,26,67,52,36,30.13,29.77,7,3,28,0.00
2014-11-22,54,44,32,38,27,19,77,52,32,29.99,29.65,8,4,24,0.00
2014-11-23,49,35,23,28,23,19,92,65,32,30.22,29.99,5,2,21,0.00
2014-11-24,51,36,25,30,23,20,90,61,31,30.40,30.12,7,2,24,0.00
2014-11-25,42,36,30,37,29,21,96,76,46,30.38,30.08,8,2,23,0.00
2014-11-26,47,35,30,38,33,29,99,93,67,30.37,30.23,2,0,5,0.00
2014-11-27,66,54,32,40,36,32,99,54,34,30.24,29.97,9,4,28,0.00
2014-11-28,59,43,4,39,29,-1,87,60,42,29.99,29.69,8,5,30,0.00
2014-11-29,7,-3,-10,-1,-10,-16,84,73,42,30.26,29.86,6,2,17,0.00
2014-11-30,28,-3,-18,6,-11,-22,88,73,30,30.47,30.26,3,0,6,0.00
2014-12-1,43,15,-8,22,7,-11,94,74,31,30.37,30.11,6,1,15,0.00
2014-12-2,50,28,11,18,14,8,90,61,21,30.29,30.18,4,1,14,0.00
2014-12-3,57,23,10,25,16,7,95,77,22,30.27,30.07,3,0,6,0.00
2014-12-4,46,34,18,37,30,16,99,87,65,30.22,30.03,3,1,8,0.00
2014-12-5,60,35,26,43,31,26,99,88,41,30.39,30.22,2,0,9,0.00
2014-12-6,61,37,26,40,31,25,99,81,40,30.37,30.22,5,1,20,0.00
2014-12-7,58,41,29,34,30,25,91,67,33,30.48,30.29,6,2,17,0.00
2014-12-8,59,35,26,35,27,24,99,77,32,30.45,30.34,4,1,13,0.00
2014-12-9,63,46,27,35,33,26,99,63,33,30.34,30.22,7,2,17,0.00
2014-12-10,61,45,33,39,34,30,96,68,38,30.27,29.97,5,2,24,0.00
2014-12-11,60,54,39,36,29,25,63,39,27,30.00,29.89,10,3,30,0.00
2014-12-12,68,56,44,34,31,26,61,39,23,29.98,29.90,7,3,27,0.00
2014-12-13,46,39,32,37,32,30,99,79,56,30.33,29.93,3,1,7,0.00
2014-12-14,35,30,24,32,28,24,99,94,84,30.47,30.33,0,0,0,0.00
2014-12-15,49,25,14,32,21,13,99,88,41,30.47,30.31,2,0,8,0.00
2014-12-16,46,25,11,36,22,10,99,90,46,30.32,30.17,0,0,2,0.00
2014-12-17,54,31,23,39,28,22,99,90,45,30.18,30.12,2,0,7,0.00
2014-12-18,42,32,24,30,27,23,98,83,59,30.22,30.17,4,1,15,0.00
2014-12-19,55,36,25,32,29,24,99,77,40,30.19,30.08,4,1,17,0.00
2014-12-20,44,42,37,32,28,25,71,59,54,30.11,29.82,10,3,24,0.00
2014-12-21,59,42,26,38,30,21,89,65,25,30.02,29.71,8,2,24,0.00
2014-12-22,41,32,25,32,26,23,97,80,50,30.42,30.02,3,0,10,0.00
2014-12-23,45,34,19,27,22,17,93,65,39,30.48,30.14,8,2,22,0.00
2014-12-24,46,39,33,36,32,28,99,75,58,30.14,29.77,7,2,20,0.00
2014-12-25,43,20,6,28,18,4,99,89,50,30.22,30.12,2,0,7,0.00
2014-12-26,44,19,6,27,16,4,99,89,41,30.37,30.22,2,0,5,0.00
2014-12-27,40,28,12,24,20,11,96,73,49,30.31,30.06,6,2,18,0.00
2014-12-28,29,19,9,26,16,6,98,89,79,30.60,30.05,3,1,12,0.00
2014-12-29,9,2,-9,7,-2,-13,89,81,69,30.96,30.60,4,1,11,0.00
2014-12-30,31,-1,-24,5,-10,-28,86,68,25,30.96,30.63,4,1,12,0.00
2014-12-31,40,16,6,10,4,-1,85,64,21,30.64,30.35,4,1,10,0.00
2015-1-1,49,18,4,14,8,2,93,69,19,30.37,30.24,3,1,8,0.00
2015-1-2,46,29,9,30,21,6,88,72,50,30.33,30.01,7,3,24,0.00